Regional Weather Roundup
Issued by NWS Northern Indiana

Home | Current Version | Previous Version | Text Only | Print | Product List | Glossary Off
Versions: 1 2 3 4 5 6 7 8 9 10 11 12 13 14 15 16 17 18 19 20 21 22 23 24 25 26 27 28 29 30 31 32 33 34 35 36 37 38 39 40 41 42 43 44 45 46 47 48 49 50

000
ASUS43 KIWX 241010
RWRIWX

KIWX WEATHER ROUNDUP
NATIONAL WEATHER SERVICE NORTHERN INDIANA
600 AM EDT SUN JUL 24 2016

NOTE: "FAIR" INDICATES FEW OR NO CLOUDS BELOW 12,000 FEET WITH NO
SIGNIFICANT WEATHER AND/OR OBSTRUCTIONS TO VISIBILITY.

* THESE STATIONS ARE NOT UNDER NWS QUALITY CONTROL. THEY ALSO MAY NOT
  REPORT WEATHER SUCH AS PRECIPITATION OR FOG.

INZ001>027-241100-
NORTHERN INDIANA

CITY           SKY/WX    TMP DP  RH WIND       PRES   REMARKS
GARY*          MOCLDY    72 N/A N/A S6        29.92S
VALPARAISO     CLOUDY    71  69  93 S5        29.95R
MICHIGAN CITY* CLOUDY    72  72 100 CALM      29.94S
LAPORTE*       CLOUDY   N/A N/A N/A E3        29.95S
KNOX*          MOCLDY    70  68  94 S5        29.95R
SOUTH BEND     CLOUDY    70  70 100 SE8       29.95F
GOSHEN         LGT RAIN  71  68  90 SW5       29.97F
MONTICELLO*    CLOUDY    71  66  85 SE5       29.96S
ROCHESTER*     LGT RAIN  72  72 100 SE3       29.97R
WARSAW*        LGT RAIN  70  70 100 NE5       29.95F
ANGOLA*          N/A     72  63  73 CALM      29.95F
FORT WAYNE     RAIN      72  69  90 CALM      29.96F
HUNTINGTON*    PTCLDY   N/A N/A N/A CALM      29.97S
PERU/GRISSOM   CLOUDY    71  71 100 SE2       29.97R
MARION*        PTCLDY    70  68  94 CALM      29.99S

$$
INZ028>050-241100-
CENTRAL INDIANA

CITY           SKY/WX    TMP DP  RH WIND       PRES   REMARKS
LAFAYETTE      MOCLDY    70  69  97 CALM      29.96S
KOKOMO*        CLOUDY    70  64  83 SE5       29.98R
MUNCIE*        CLOUDY    73  69  87 E6        30.00F
INDIANAPOLIS   MOCLDY    78  73  84 E7        29.99S

$$
MIZ043>046-050>051-056>058-064>065-071>073-077>080-241100-
SOUTHWEST LOWER MICHIGAN

CITY           SKY/WX    TMP DP  RH WIND       PRES   REMARKS
BATTLE CREEK   LGT RAIN  70  70 100 N3        29.96F
BENTON HARBOR  CLOUDY    72  69  90 SE6       29.92F
COLDWATER*     CLOUDY    73  73 100 NE3       29.95F
HOLLAND        CLOUDY    72  70  93 SE10      29.91F
GRAND RAPIDS   LGT RAIN  73  69  87 S10       29.94F
KALAMAZOO      LGT RAIN  72  69  90 CALM      29.94F FOG
STURGIS*       CLOUDY    71  70  98 CALM      29.95F
THREE RIVERS*  LGT RAIN  73  71  95 SW3       29.95F

$$
OHZ001>008-015>018-024>025-241100-
NORTHWEST OHIO

CITY           SKY/WX    TMP DP  RH WIND       PRES   REMARKS
WAUSEON*       FAIR      75  72  88 N3        29.96F
DEFIANCE       CLOUDY    77  69  76 CALM      29.96F
FINDLAY        MOCLDY    76  70  82 SE5       29.97F
TOLEDO EXPRESS CLOUDY    74  72  93 CALM      29.95F
TOLEDO METCALF CLOUDY    75  69  81 SE5       29.97F
LIMA           MOCLDY    74  72  93 CALM      30.00F

$$
AND FOR LAKE MICHIGAN COASTAL AND OPEN LAKE BUOY OBSERVATIONS

STATION/POSITION TEMP    WIND        PRES    VSBY  WAVE
                 AIR SEA DIR/SP/G                  HT/PER
                 (F)     (DEG/KT/KT) (MB)    (MI)  (FT/S)
CALUMET HARBOR    72     180/  6/  8 1012.3F
MICHIGAN CITY     73     130/  9/ 11   N/A
BURNS HARBOR      72     190/  7/ 10 1013.9R
SAINT JOSEPH      71     180/  2/  6 1013.2F
SOUTH LAKE BUOY   72 72  150/ 16/ 19 1010.9F         2/ 3
4 MI NW BRIDGMAN  72 73  170/  8/ 10 1013.2R         2/ 2
MICHIGAN CITY     74 73  170/  6/  8   N/A           1/ 4

$$
&&



USA.gov is the U.S. government's official web portal to all federal, state and local government web resources and services.